Location: Bushrod
(6.3500°N, 10.7833°W)
Time: 13:19:10
(UTC+00:00)

CZ-2C R/B - Pass Details

Date: 17 September 2019
Orbit: 639 x 705 km, 98.4° (Epoch: 14 October)

Event Time Altitude Azimuth Distance (km) Brightness Sun altitude
Rises 19:36:49 0° 16° (NNE) 2,930 6.9 -14.5°
Reaches altitude 10° 19:39:02 10° 19° (NNE) 2,021 6.0 -15.0°
Maximum altitude 19:43:23 67° 102° (ESE) 691 3.5 -16.1°
Drops below altitude 10° 19:47:47 10° 185° (S) 2,035 6.2 -17.2°
Sets 19:50:00 0° 187° (S) 2,952 7.1 -17.7°
